[[[{"header":{"parameterUnit":"kt","parameterCategory":2,"dx":1,"dy":1,"la1":30.253999710083008,"la2":30.299108505249023,"lo1":-89.0895004272461,"lo2":-89.04439544677734,"nx":28,"ny":28,"refTime":"2022-09-20T09:00:00:Z","depth":0,"parameterNumber":1,"parameterNumberName":"U-component_of_WINDS"},"data":[-4.0813,-4.072,-4.07,-4.0585,-4.0547,-4.0464,-4.0428,-4.0379,-4.0334,-4.0233,-4.017,-4.0139,-4.0085,-4.0005,-3.9935,-3.9922,-3.9894,-3.9879,-3.9866,-3.9957,-3.9968,-3.9979,-3.9999,-3.9873,-3.9873,-3.9773,-3.9773,-3.9772,-4.0887,-4.0849,-4.0782,-4.0702,-4.0645,-4.0648,-4.0585,-4.0536,-4.0461,-4.0405,-4.0341,-4.025,-4.0174,-4.0123,-4.0046,-4.0002,-3.9998,-3.9982,-3.9984,-3.9976,-4.0073,-4.0095,-3.9987,-3.9987,-3.9987,-3.9987,-3.9987,-3.9987,-4.1017,-4.0962,-4.0902,-4.0828,-4.0782,-4.0728,-4.0672,-4.0634,-4.0567,-4.0484,-4.047,-4.0384,-4.0322,-4.0217,-4.0175,-4.0108,-4.012,-4.0095,-4.0089,-4.0083,-4.008,-4.0228,-4.0093,-4.0094,-4.0094,-4.0094,-4.0094,0,-4.1105,-4.1091,-4.1024,-4.0951,-4.0896,-4.0836,-4.0778,-4.0742,-4.0702,-4.0648,-4.0567,-4.0516,-4.0416,-4.0337,-4.0258,-4.0219,-4.0214,-4.021,-4.0193,-4.0198,-4.0214,-4.0204,-4.0364,-4.0213,-4.0214,-4.0215,-4.0215,-4.0216,-4.1233,-4.1171,-4.1096,-4.1052,-4.1014,-4.0943,-4.0895,-4.0864,-4.0815,-4.0738,-4.069,-4.061,-4.0544,-4.0417,-4.0369,-4.0293,-4.0289,-4.0235,-4.0277,-4.0287,-4.0287,-4.0291,-4.0285,-4.0226,-4.0224,-4.0223,-4.0223,0,-4.1308,-4.1272,-4.1167,-4.1098,-4.1078,-4.1014,-4.0954,-4.0897,-4.0865,-4.0781,-4.076,-4.0708,-4.0628,-4.0589,-4.0489,-4.0471,-4.0365,-4.0363,-4.0387,-4.0384,-4.0331,-4.0336,-4.0164,-4.014,-4.0271,-4.027,-4.0269,0,-4.1402,-4.1321,-4.1271,-4.1212,-4.1122,-4.1092,-4.1002,-4.0965,-4.091,-4.0844,-4.0832,-4.077,-4.0729,-4.0661,-4.0634,-4.0541,-4.0522,-4.0502,-4.0495,-4.0501,-4.0504,-4.0472,-4.0477,-4.0483,-4.0484,-4.0485,-4.0486,0,-4.1521,-4.1398,-4.1303,-4.1269,-4.1184,-4.114,-4.1102,-4.1039,-4.0992,-4.0924,-4.0893,-4.0816,-4.0773,-4.0714,-4.068,-4.071,-4.0564,-4.0599,-4.0543,-4.0544,-4.051,-4.0512,-4.0372,-4.0487,-4.0487,-4.0487,-4.0488,0,-4.159,-4.1523,-4.1391,-4.132,-4.1288,-4.1225,-4.1147,-4.1084,-4.1018,-4.0997,-4.0943,-4.0929,-4.0843,-4.0881,-4.0763,-4.0813,-4.0771,-4.0744,-4.0739,-4.0727,-4.0769,-4.0694,-4.0566,-4.0551,-4.072,-4.0722,-4.0724,0,-4.1736,-4.1591,-4.1564,-4.1437,-4.1365,-4.1357,-4.1285,-4.1227,-4.1192,-4.1125,-4.1087,-4.1009,-4.1029,-4.0999,-4.0946,-4.0902,-4.0838,-4.091,-4.0811,-4.0808,-4.0829,-4.0711,-4.0701,-4.06,-4.0748,-4.0745,-4.0743,0,-4.1844,-4.1741,-4.172,-4.1679,-4.1596,-4.1534,-4.1453,-4.137,-4.1327,-4.1261,-4.119,-4.108,-4.1091,-4.104,-4.1019,-4.0966,-4.088,-4.0983,-4.0981,-4.0965,-4.0756,-4.0748,-4.0731,-4.0878,-4.0875,-4.0873,-4.0763,0,-4.1956,-4.1877,-4.182,-4.1729,-4.1675,-4.1592,-4.155,-4.1499,-4.1485,-4.145,-4.1346,-4.1283,-4.1196,-4.1166,-4.115,-4.1041,-4.1052,-4.1063,-4.1093,-4.1017,-4.098,-4.0964,-4.1154,-4.1154,-4.1155,-4.1155,0,0,-4.2104,-4.199,-4.196,-4.1879,-4.1832,-4.1822,-4.1738,-4.169,-4.1592,-4.1559,-4.1577,-4.1412,-4.1359,-4.1236,-4.1209,-4.1173,-4.1149,-4.1176,-4.1054,-4.1043,-4.1033,-4.0993,-4.0978,-4.1156,-4.1157,-4.1157,-4.1157,0,-4.2135,-4.2085,-4.2003,-4.1952,-4.1876,-4.1843,-4.1823,-4.1745,-4.1717,-4.1614,-4.1605,-4.1537,-4.1403,-4.135,-4.1305,-4.1192,-4.1187,-4.1168,-4.1122,-4.1061,-4.105,-4.1039,-4.0998,-4.0984,-4.1158,-4.1158,-4.1158,0,-4.2232,-4.2176,-4.2131,-4.2022,-4.1971,-4.1896,-4.1919,-4.1837,-4.178,-4.1769,-4.1666,-4.1625,-4.1549,-4.1438,-4.1386,-4.14,-4.1223,-4.127,-4.1265,-4.1258,-4.1196,-4.1182,-4.117,-4.1335,-4.1336,-4.1336,0,0,-4.2265,-4.2191,-4.2119,-4.2025,-4.1995,-4.1942,-4.1897,-4.1877,-4.181,-4.1782,-4.1729,-4.1662,-4.1585,-4.1534,-4.1458,-4.1343,-4.1323,-4.1294,-4.1286,-4.1279,-4.1268,-4.1205,-4.1191,-4.1339,-4.1339,-4.134,0,0,-4.2279,-4.2192,-4.219,-4.2076,-4.2014,-4.1934,-4.1878,-4.1873,-4.18,-4.1804,-4.1765,-4.1745,-4.164,-4.1599,-4.1645,-4.1468,-4.15,-4.1488,-4.1498,-4.1487,-4.1479,-4.149,-4.1658,0,0,0,0,0,-4.2288,-4.2203,-4.2202,-4.2177,-4.2036,-4.1935,-4.1917,-4.1883,-4.1908,-4.1865,-4.1819,-4.1816,-4.1616,-4.1657,-4.1631,-4.1578,-4.1379,-4.1372,-4.1365,-4.1351,-4.134,-4.1331,0,0,0,0,0,0,-4.2277,-4.2246,-4.2204,-4.2122,-4.209,-4.1938,-4.1972,-4.196,-4.1912,-4.1913,-4.1826,-4.1814,-4.1782,-4.1667,-4.1645,-4.1595,-4.1665,-4.1376,-4.137,-4.1365,-4.1347,-4.1338,-4.133,0,0,0,0,0,-4.2269,-4.2244,-4.2028,-4.2123,-4.2095,-4.2031,-4.1975,-4.1965,-4.1927,-4.1855,-4.1843,-4.1906,-4.1781,-4.176,-4.1654,-4.1607,-4.1681,-4.1672,-4.1372,-4.1367,-4.1363,-4.1343,0,0,0,0,0,0,-4.2263,-4.2234,-4.2022,-4.2012,-4.2152,-4.2038,-4.202,-4.197,-4.1871,-4.1858,-4.1933,-4.1936,-4.178,-4.1764,-4.1747,-4.1613,-4.1693,-4.1685,-4.1679,-4.1369,-4.1365,-4.1362,0,0,0,0,0,0,-4.2247,-4.2226,-4.2017,-4.2055,-4.205,-4.2046,-4.2029,-4.1933,-4.187,-4.1955,-4.1954,-4.1935,-4.1804,-4.1766,-4.1753,-4.1604,-4.1703,-4.1695,-4.1689,-4.1686,-4.1366,-4.1363,0,0,0,0,0,0,-4.2238,-4.2219,-4.2058,-4.2053,-4.2048,-4.1937,-4.196,-4.1818,-4.1905,-4.1959,-4.1912,-4.1915,-4.1806,-4.1793,-4.1757,-4.1614,-4.1607,-4.1703,-4.1697,-4.1693,-4.1691,0,0,0,0,0,0,0,-4.223,-4.2361,-4.208,-4.2052,-4.2047,-4.1922,-4.1919,-4.1917,-4.1906,-4.1908,-4.1911,-4.1914,-4.1749,-4.174,-4.1731,-4.1622,0,0,-4.1703,-4.1699,0,0,0,0,0,0,0,0,-4.2368,-4.2363,-4.2079,-4.2077,-4.2075,-4.1922,-4.1919,-4.1917,-4.1906,-4.1908,-4.1911,-4.1913,-4.1747,-4.174,-4.1732,0,0,0,0,0,0,0,0,0,0,0,0,0,0,0,-4.2079,-4.2078,0,-4.1921,-4.192,-4.1918,-4.1907,-4.1908,-4.191,-4.1912,-4.1745,-4.1739,-4.1733,0,0,0,0,0,0,0,0,0,0,0,0,0,0,0,0,0,0,0,0,0,0,0,0,0,0,0,0,0,0,0,0,0,0,0,0,0,0,0,0,0,0,0,0,0,0,0,0,0,0,0,0,0,0,0,0,0,0,0,0,0,0,0,0,0,0,0,0,0]}],[{"header":{"parameterUnit":"kt","parameterCategory":2,"dx":1,"dy":1,"la1":30.253999710083008,"la2":30.299108505249023,"lo1":-89.0895004272461,"lo2":-89.04439544677734,"nx":28,"ny":28,"refTime":"2022-09-20T09:00:00:Z","depth":0,"parameterNumber":2,"parameterNumberName":"V-component_of_WINDS"},"data":[-2.0697,-2.072,-2.0739,-2.0774,-2.0796,-2.0824,-2.0839,-2.0862,-2.0884,-2.092,-2.0944,-2.0964,-2.0994,-2.1028,-2.1056,-2.1064,-2.1075,-2.1072,-2.1083,-2.1083,-2.1084,-2.1085,-2.1081,-2.1073,-2.1073,-2.1081,-2.1081,-2.1081,-2.07,-2.0722,-2.0745,-2.078,-2.0801,-2.0816,-2.0845,-2.0861,-2.0885,-2.0913,-2.0936,-2.0969,-2.0998,-2.1029,-2.106,-2.1072,-2.1082,-2.108,-2.108,-2.1085,-2.1085,-2.108,-2.1072,-2.1072,-2.1072,-2.1072,-2.1072,-2.1072,-2.0711,-2.0723,-2.0754,-2.078,-2.0802,-2.0825,-2.084,-2.0865,-2.0888,-2.0921,-2.0937,-2.0965,-2.0995,-2.104,-2.1059,-2.1082,-2.1088,-2.1091,-2.1092,-2.1093,-2.1093,-2.1084,-2.1088,-2.1088,-2.1088,-2.1088,-2.1088,0,-2.0724,-2.0738,-2.0761,-2.0789,-2.0808,-2.0832,-2.0856,-2.0866,-2.0901,-2.0918,-2.0945,-2.0964,-2.1001,-2.1029,-2.1061,-2.108,-2.1098,-2.11,-2.1103,-2.1097,-2.1088,-2.1095,-2.1097,-2.11,-2.11,-2.11,-2.11,-2.11,-2.0738,-2.0749,-2.0789,-2.0803,-2.082,-2.0841,-2.0858,-2.0887,-2.0903,-2.0938,-2.0948,-2.0975,-2.0999,-2.1039,-2.1067,-2.1095,-2.1104,-2.1104,-2.1108,-2.1102,-2.1107,-2.1106,-2.1109,-2.1102,-2.1102,-2.1102,-2.1102,0,-2.0745,-2.0772,-2.0795,-2.0833,-2.0843,-2.0854,-2.0887,-2.09,-2.0922,-2.0943,-2.095,-2.0984,-2.101,-2.1038,-2.1072,-2.1086,-2.1108,-2.1115,-2.1099,-2.1103,-2.1107,-2.1107,-2.1111,-2.1114,-2.112,-2.112,-2.112,0,-2.0768,-2.0781,-2.0822,-2.0834,-2.085,-2.0879,-2.0895,-2.0914,-2.094,-2.0957,-2.098,-2.0996,-2.1029,-2.105,-2.107,-2.1093,-2.1098,-2.1111,-2.1117,-2.111,-2.1108,-2.1119,-2.112,-2.1126,-2.1126,-2.1126,-2.1125,0,-2.0777,-2.0813,-2.0831,-2.0844,-2.0885,-2.0893,-2.0911,-2.0938,-2.0954,-2.0978,-2.0988,-2.1014,-2.1028,-2.1049,-2.1075,-2.1077,-2.1102,-2.111,-2.1115,-2.1115,-2.1119,-2.1119,-2.1115,-2.1125,-2.1125,-2.1125,-2.1125,0,-2.08,-2.0823,-2.0845,-2.088,-2.0888,-2.09,-2.0927,-2.0944,-2.0971,-2.0985,-2.1004,-2.1022,-2.1042,-2.1049,-2.1078,-2.1074,-2.1087,-2.11,-2.1101,-2.1105,-2.1113,-2.1109,-2.1101,-2.1102,-2.1109,-2.1109,-2.1109,0,-2.0805,-2.0833,-2.0857,-2.0877,-2.0894,-2.092,-2.0934,-2.0957,-2.0976,-2.0994,-2.1015,-2.1034,-2.1045,-2.1055,-2.1065,-2.1088,-2.1093,-2.1088,-2.1117,-2.1117,-2.1111,-2.1103,-2.1095,-2.1099,-2.1108,-2.1108,-2.1108,0,-2.0811,-2.0859,-2.086,-2.0876,-2.091,-2.0923,-2.0938,-2.0964,-2.0975,-2.0996,-2.1011,-2.1037,-2.1048,-2.1063,-2.108,-2.1089,-2.1091,-2.1099,-2.11,-2.1098,-2.1108,-2.1102,-2.1102,-2.1101,-2.1101,-2.1101,-2.1107,0,-2.0845,-2.0861,-2.0866,-2.0897,-2.0911,-2.0924,-2.0952,-2.0963,-2.0979,-2.0998,-2.1019,-2.1042,-2.1067,-2.1074,-2.1088,-2.1099,-2.1102,-2.1111,-2.112,-2.1114,-2.1117,-2.1118,-2.1114,-2.1115,-2.1115,-2.1115,0,0,-2.0844,-2.0867,-2.0891,-2.0906,-2.092,-2.0945,-2.0956,-2.0972,-2.1003,-2.1013,-2.1018,-2.1059,-2.1077,-2.1099,-2.1099,-2.1108,-2.1114,-2.1114,-2.1116,-2.1116,-2.1117,-2.1119,-2.1119,-2.1116,-2.1116,-2.1116,-2.1116,0,-2.0862,-2.0879,-2.0889,-2.0907,-2.0933,-2.0952,-2.0955,-2.0986,-2.0998,-2.1016,-2.1037,-2.1052,-2.1081,-2.11,-2.1113,-2.1112,-2.1126,-2.1117,-2.1108,-2.1119,-2.1118,-2.1118,-2.112,-2.112,-2.1117,-2.1117,-2.1117,0,-2.0875,-2.0898,-2.0904,-2.0934,-2.0952,-2.0967,-2.0984,-2.0998,-2.101,-2.1036,-2.1053,-2.107,-2.1095,-2.1111,-2.1118,-2.1124,-2.1137,-2.1136,-2.1134,-2.1136,-2.1148,-2.1147,-2.1147,-2.1155,-2.1155,-2.1155,0,0,-2.0887,-2.0901,-2.0933,-2.094,-2.095,-2.0977,-2.0987,-2.1003,-2.1025,-2.1033,-2.1055,-2.1076,-2.1094,-2.1105,-2.1123,-2.1135,-2.1144,-2.1139,-2.1138,-2.1136,-2.1137,-2.1148,-2.1148,-2.1155,-2.1155,-2.1155,0,0,-2.0893,-2.093,-2.0941,-2.0952,-2.0973,-2.1005,-2.1008,-2.1023,-2.1041,-2.1043,-2.107,-2.1076,-2.1091,-2.1105,-2.1104,-2.1127,-2.1135,-2.1136,-2.1117,-2.1115,-2.1113,-2.111,-2.1124,0,0,0,0,0,-2.0925,-2.0926,-2.0936,-2.0941,-2.0978,-2.0999,-2.1004,-2.1026,-2.1033,-2.1036,-2.1056,-2.107,-2.1111,-2.111,-2.1115,-2.1117,-2.1156,-2.1156,-2.1155,-2.1133,-2.1131,-2.1129,0,0,0,0,0,0,-2.0927,-2.0934,-2.0936,-2.0967,-2.0975,-2.0999,-2.1015,-2.1022,-2.1033,-2.1036,-2.1066,-2.1071,-2.109,-2.1109,-2.1113,-2.1114,-2.1122,-2.1156,-2.1156,-2.1155,-2.1133,-2.1131,-2.1129,0,0,0,0,0,-2.093,-2.0935,-2.0987,-2.0967,-2.0975,-2.1005,-2.1016,-2.1021,-2.103,-2.1061,-2.1066,-2.1046,-2.109,-2.1095,-2.1111,-2.1112,-2.1119,-2.1121,-2.1156,-2.1156,-2.1155,-2.1132,0,0,0,0,0,0,-2.0931,-2.094,-2.0989,-2.0993,-2.0968,-2.1004,-2.101,-2.102,-2.1055,-2.106,-2.1042,-2.1044,-2.1089,-2.1093,-2.1098,-2.111,-2.1117,-2.1118,-2.1119,-2.1156,-2.1155,-2.1155,0,0,0,0,0,0,-2.0938,-2.0943,-2.0991,-2.0991,-2.0994,-2.1003,-2.1008,-2.1025,-2.1055,-2.1034,-2.1037,-2.1042,-2.1083,-2.1092,-2.1096,-2.112,-2.1115,-2.1116,-2.1118,-2.1118,-2.1155,-2.1155,0,0,0,0,0,0,-2.094,-2.0945,-2.099,-2.0993,-2.0995,-2.1032,-2.1018,-2.1054,-2.1054,-2.1032,-2.1055,-2.1055,-2.1082,-2.1085,-2.1094,-2.1117,-2.1119,-2.1115,-2.1116,-2.1117,-2.1117,0,0,0,0,0,0,0,-2.0942,-2.0906,-2.0971,-2.0994,-2.0997,-2.1021,-2.1022,-2.1023,-2.1054,-2.1055,-2.1055,-2.1055,-2.1106,-2.1107,-2.1109,-2.1115,0,0,-2.1115,-2.1116,0,0,0,0,0,0,0,0,-2.0905,-2.0906,-2.0971,-2.0972,-2.0972,-2.1021,-2.1022,-2.1023,-2.1055,-2.1055,-2.1055,-2.1055,-2.1106,-2.1108,-2.1109,0,0,0,0,0,0,0,0,0,0,0,0,0,0,0,-2.0971,-2.0972,0,-2.1022,-2.1022,-2.1023,-2.1055,-2.1055,-2.1055,-2.1055,-2.1107,-2.1108,-2.1109,0,0,0,0,0,0,0,0,0,0,0,0,0,0,0,0,0,0,0,0,0,0,0,0,0,0,0,0,0,0,0,0,0,0,0,0,0,0,0,0,0,0,0,0,0,0,0,0,0,0,0,0,0,0,0,0,0,0,0,0,0,0,0,0,0,0,0,0,0]}]]]